This is the latest recevied weather packets stored in our database for station/object KC3ROS. If no packets are shown the sender has not sent any weather packets the latest 1 day(s).
| Time | Temp. | Humidity | Pressure | Rain* | Wind** | Luminosity | Snow |
|---|---|---|---|---|---|---|---|
| 1778034969 | 16.11° C | 84% | 1007 hPa | 0 mm | 0.89 m/s, 353° | 0 W/m² | - |
| 1778034667 | 16.11° C | 83% | 1007.1 hPa | 0 mm | 0.89 m/s, 60° | 0 W/m² | - |
| 1778034364 | 16.67° C | 82% | 1007.1 hPa | 0 mm | 0.45 m/s, 314° | 0 W/m² | - |
| 1778034061 | 16.67° C | 80% | 1007.2 hPa | 0 mm | 1.34 m/s, 349° | 0 W/m² | - |
| 1778033759 | 17.78° C | 75% | 1007 hPa | 0 mm | 1.34 m/s, 9° | 0 W/m² | - |
| 1778033456 | 18.33° C | 70% | 1006.9 hPa | 0 mm | 1.34 m/s, 322° | 0 W/m² | - |
| 1778033153 | 18.89° C | 65% | 1006.8 hPa | 0 mm | 0 m/s | 0 W/m² | - |
| 1778032851 | 18.89° C | 60% | 1006.5 hPa | 0 mm | 0 m/s | 0 W/m² | - |
| 1778032548 | 18.89° C | 60% | 1006.5 hPa | 0 mm | 0 m/s | 0 W/m² | - |
| 1778032245 | 18.89° C | 59% | 1006.6 hPa | 0 mm | 0 m/s | 0 W/m² | - |
| 1778031943 | 19.44° C | 59% | 1006.6 hPa | 0 mm | 0.45 m/s, 191° | 0 W/m² | - |
| 1778031638 | 19.44° C | 59% | 1006.7 hPa | 0 mm | 0.89 m/s, 242° | 0 W/m² | - |
| 1778031337 | 19.44° C | 59% | 1006.6 hPa | 0 mm | 0.89 m/s, 219° | 0 W/m² | - |
| 1778031033 | 19.44° C | 58% | 1006.5 hPa | 0 mm | 0.45 m/s, 166° | 0 W/m² | - |
| 1778030729 | 19.44° C | 59% | 1006.5 hPa | 0 mm | 0.89 m/s, 220° | 0 W/m² | - |
| 1778030426 | 19.44° C | 58% | 1006.4 hPa | 0 mm | 0.89 m/s, 139° | 0 W/m² | - |
| 1778030128 | 19.44° C | 58% | 1006.5 hPa | 0 mm | 0.89 m/s, 194° | 0 W/m² | - |
| 1778029819 | 19.44° C | 58% | 1006.6 hPa | 0 mm | 2.24 m/s, 204° | 0 W/m² | - |
| 1778029514 | 19.44° C | 58% | 1006.4 hPa | 0 mm | 0 m/s | 0 W/m² | - |
| 1778029210 | 19.44° C | 58% | 1006.6 hPa | 0 mm | 0.89 m/s, 127° | 0 W/m² | - |
| 1778028907 | 19.44° C | 57% | 1006.3 hPa | 0 mm | 1.34 m/s, 213° | 0 W/m² | - |
| 1778028602 | 19.44° C | 59% | 1006.5 hPa | 0 mm | 1.34 m/s, 200° | 0 W/m² | - |
| 1778028300 | 20° C | 57% | 1006.4 hPa | 0 mm | 0.89 m/s, 202° | 0 W/m² | - |
| 1778027996 | 20° C | 58% | 1006.4 hPa | 0 mm | 0.89 m/s, 228° | 0 W/m² | - |
| 1778027693 | 20° C | 57% | 1006.3 hPa | 0 mm | 0.89 m/s, 176° | 0 W/m² | - |
* Rain latest hour (hover to see other rain measurements)
** Current wind speed in m/s (hover to see current wind gust speed)